User: anonymous   Login
Location: Unspecified
(0.0000°N, 0.0000°E)
Time: 12:46:54
(UTC+00:00)
Language:

DOUBLE STAR - Orbit

View from above orbital plane
View from above orbital plane
View from above satellite
View from above satellite

Ground track
Ground track

The orbit data is extracted from the following two-line orbital elements,

1 28382U 04029A   18199.26250374  .00000011  00000-0  91729-4 0  9999
2 28382  87.4514 290.3748 7212227  20.7488 357.6347  2.29779704110609
Epoch (UTC): 18 July 2018 06:18:00
Eccentricity: 0.7212227
inclination: 87.4514°
perigee height: 384 km
apogee height: 35375 km
right ascension of ascending node: 290.3748°
argument of perigee: 20.7488°
revolutions per day: 2.29779704
mean anomaly at epoch: 357.6347°
orbit number at epoch: 11060

The dashed part of the orbit path shows where the satellite is in the earth's shadow,  

DLR